STARLINK-32259

Last updated on Tue Oct 01 2024 00:02:04 GMT+0000 (Coordinated Universal Time)

1 60937U 24155P 24274.58334491 -.00088580 00000+0 -22253-2 0 9994 2 60937 53.1595 52.0062 0001044 90.0748 94.1983 15.39688311 5966
UTC large
Height (km)
Speed (km/s)
/
Latitude / Longitude
Inclination (degrees)
Orbital Period (minutes)
Azimuth
Elevation
Range (km)
Doppler Factor

Next 0 passes for location: London (51.5072 / 0.1276)

Sorry there are no passes over London.